Погода в Пиринеми

Россия / Архангельская область     64°13′45″N   44°13′37″E
темп.,
°C
ветер,
м/с
пор.,
м/с
влажн.,
%
обл.,
%
осадки,
мм/ч
давл.,
гПа
погр.,
м
29 июня, ср
ср2900:00+5с27675 0.0 1027142
03:00+4с237759 0.0 102853
06:00+9ссз2358100 0.0 1027277
09:00+13ссз344092 0.0 1026698
12:00+18сз352566 0.0 10231371
15:00+21сз46225 0.0 10211810
18:00+21ссз47286 0.0 10191879
21:00+15ссз274598 0.0 1018194
30 июня, чт
чт3000:00+10с267231 0.0 1019115
03:00+8св258780 0.0 1020116
06:00+11всв3561100 0.0 1021393
09:00+16св243595 0.0 1021891
12:00+19св34265 0.0 10211329
15:00+21св34235 0.0 10201621
18:00+21св34257 0.0 10201516
21:00+15всв11485 0.0 102011
1 июля, пт
пт100:00+11ююв115271 0.0 102010
03:00+10юз115667 0.0 102110
06:00+16зюз24445 0.0 1020210
09:00+17з115198 0.0 101923
12:00+20сз3656100 0.1 10181060
15:00+20ссз36592 0.1 1018922
18:00+20с57550 0.0 10181145
21:00+15с377374 0.0 1018459
2 июля, сб
сб200:00+10с38930 0.0 1019241
03:00+8с379941 0.0 1020212
06:00+10с348592 0.0 1020391
09:00+14ссв347065 0.0 1019688
12:00+19ссв335624 0.0 1019989
15:00+21св23505 0.0 10181131
18:00+22св225017 0.0 10171166
21:00+17всв11715 0.0 101711
3 июля, вс
вс300:00+13вюв11840 0.0 101811
03:00+12ююз118831 0.0 101710
06:00+18юз12665 0.0 1017230
09:00+23зюз22485 0.0 10161035
12:00+27з233261 0.0 10151714
15:00+29з2334100 0.0 10132009
18:00+28зсз243810 0.0 10122008
21:00+22юз22605 0.0 101236